Home > Weather > Poznan > Past weeks

Flag for Poland Past Weather in Poznan, Poland — Yesterday and Last 2 Weeks

Now
79 °F

Passing clouds.


Feels Like: 80 °F
Forecast: 64 / 83 °F
Wind: 7 mph from North

Location: Poznan Airport

Current Time: Jul 25, 2016 at 12:07:36 PM

Latest Report: Jul 25, 2016 at 11:30 AM


Visibility: N/A

Pressure: 30.04 "Hg

Humidity: 58%

Dew Point: 63 °F

Location of PoznanLocation

Past Weather in Poznan — Graph

°F

Poznan Temperature Yesterday

Maximum temperature yesterday: 77 °F (at 2:00 PM)
Minimum temperature yesterday: 59 °F (at 1:00 AM)
Average temperature yesterday: 69 °F

High & Low Weather Summary for the Past Weeks

 TemperatureHumidityPressure
High90 °F (Jul 11, 2:00 PM)94% (Jul 11, 11:00 PM)30.21 "Hg (Jul 11, 11:00 PM)
Low52 °F (Jul 14, 8:30 PM)36% (Jul 11, 6:00 PM)29.62 "Hg (Jul 14, 1:00 PM)
Average67 °F73%29.99 "Hg
* Reported Jul 10 11:00 AM — Jul 25 11:00 AM, Poznan, Weather by CustomWeather, © 2016

Note: Actual official high and low records may vary slightly from our data, if they occured in-between our weather recording intervals... More about our weather records

Advertising

Poznan Weather History for the Previous 24 Hours

Scroll right to see more
 ConditionsComfort  
Time TempWeatherWind HumidityBarometerVisibility
11:00 AM
Mon, Jul 25
79 °FPassing clouds.7 mph58%30.04 "HgN/A
10:30 AM77 °FSunny.7 mph65%30.04 "Hg10 mi
10:00 AM75 °FPassing clouds.5 mph69%30.04 "HgN/A
9:30 AM73 °FPassing clouds.3 mph74%30.07 "HgN/A
9:00 AM72 °FSunny.1 mph78%30.07 "Hg10 mi
8:30 AM70 °FSunny.2 mph78%30.07 "Hg10 mi
8:00 AM68 °FSunny.3 mph83%30.07 "Hg10 mi
7:30 AM68 °FSunny.3 mph83%30.07 "Hg10 mi
7:00 AM66 °FSunny.2 mph88%30.07 "Hg10 mi
6:30 AM66 °FSunny.2 mph88%30.07 "Hg10 mi
6:00 AM64 °FClear.2 mph94%30.07 "Hg6 mi
5:30 AM64 °FClear.2 mph88%30.07 "Hg5 mi
5:00 AM64 °FClear.2 mph88%30.07 "Hg10 mi
4:30 AM66 °FClear.1 mph88%30.07 "Hg10 mi
4:00 AM66 °FClear.2 mph88%30.07 "Hg10 mi
3:30 AM66 °FClear.2 mph88%30.07 "Hg10 mi
3:00 AM66 °FClear.3 mph88%30.07 "Hg10 mi
2:30 AM68 °FClear.5 mph83%30.07 "Hg10 mi
2:00 AM68 °FClear.5 mph83%30.07 "Hg10 mi
1:30 AM70 °FClear.3 mph78%30.07 "Hg10 mi
1:00 AM70 °FClear.6 mph78%30.07 "Hg10 mi
12:30 AM70 °FClear.6 mph78%30.09 "Hg10 mi
12:00 AM72 °FPassing clouds.6 mph73%30.09 "HgN/A
11:30 PM
Sun, Jul 24
72 °FPassing clouds.6 mph73%30.09 "HgN/A
11:00 PM72 °FClear.6 mph73%30.09 "Hg10 mi
10:30 PM72 °FClear.5 mph73%30.09 "Hg10 mi
10:00 PM72 °FClear.5 mph78%30.09 "Hg10 mi
9:30 PM72 °FSunny.3 mph78%30.09 "Hg10 mi
9:00 PM73 °FSunny.3 mph74%30.09 "Hg10 mi
8:30 PM73 °FSunny.3 mph74%30.07 "Hg10 mi
8:00 PM75 °FSunny.3 mph69%30.07 "Hg10 mi
7:30 PM75 °FSunny.3 mph69%30.07 "Hg10 mi
7:00 PM75 °FSunny.5 mph69%30.07 "Hg10 mi
6:30 PM75 °FSunny.5 mph65%30.07 "Hg10 mi
6:00 PM75 °FSunny.5 mph65%30.07 "Hg10 mi
5:30 PM75 °FPassing clouds.5 mph65%30.07 "HgN/A
5:00 PM75 °FSunny.6 mph69%30.09 "Hg10 mi
4:30 PM75 °FSunny.6 mph69%30.09 "Hg10 mi
4:00 PM77 °FLight rain. Scattered clouds.2 mph61%30.09 "HgN/A
3:30 PM75 °FLight rain. Scattered clouds.3 mph69%30.09 "HgN/A
3:00 PM75 °FLight rain. Passing clouds.2 mph69%30.09 "HgN/A
2:30 PM75 °FScattered clouds.2 mph65%30.09 "HgN/A
2:00 PM77 °FPassing clouds.5 mph61%30.09 "HgN/A
1:30 PM75 °FScattered clouds.5 mph65%30.09 "HgN/A
1:00 PM75 °FScattered clouds.3 mph65%30.09 "HgN/A
12:30 PM75 °FPassing clouds.2 mph65%30.09 "HgN/A
12:00 PM75 °FPartly sunny.3 mph65%30.09 "HgN/A
Weather by CustomWeather, © 2016

See weather overviewHow to use our weather pages